Delta Junction, AK

3:57 AM AKDT on August 30, 2016 (GMT -0800)
Allen Army Air Field

Weather History for PABI - April, 2013

Change the Weather History Date:

Wednesday, April 17, 2013

  Actual Average Record
Temperature  
Mean Temperature 17 °F -  
Max Temperature 24 °F 42 °F 57 °F (1999)
Min Temperature 10 °F 23 °F 6 °F (1997)
Degree Days  
Heating Degree Days 48    
Moisture  
Dew Point 11 °F    
Average Humidity 75    
Maximum Humidity 92    
Minimum Humidity 53    
Precipitation  
Precipitation 0.00 in - - ()
Sea Level Pressure  
Sea Level Pressure 30.30 in    
Wind  
Wind Speed 8 mph (West)    
Max Wind Speed 15 mph    
Max Gust Speed 22 mph    
Visibility 8 miles    
Events Snow    
Averages and records for this station are not official NWS values.
T = Trace of Precipitation, MM = Missing Value Source: NWS Daily Summary

Daily Weather History Graph

Daily Weather History Graph

Search for Another Location

Airport or City:

Trip Planner

Search our weather history database for the weather conditions in past years. The results will help you decide how hot, cold, wet, or windy it might be!

Date:

Astronomy

Apr. 17, 2013 Rise Set
Actual Time 6:03 AM AKDT 9:23 PM AKDT
Civil Twilight 5:06 AM AKDT 10:20 PM AKDT
Nautical Twilight 3:41 AM AKDT 11:48 PM AKDT
Astronomical Twilight Sun does not set Sun does not set
Moon 10:42 AM AKDT (4/17) 3:52 AM AKDT (4/17)
Length of Visible Light 17h 13m
Length of Day
15h 20m
Waxing Crescent, 44% of the Moon is Illuminated
Apr 17
Waxing Crescent
Apr 18
First Quarter
Apr 25
Full
May 2
Last Quarter
May 9
New

Hourly Weather History & Observations

Time (AKDT) Temp. Windchill Dew Point Humidity Pressure Visibility Wind Dir Wind Speed Gust Speed Precip Events Conditions
12:00 AM 17.6 °F 8.2 °F 14.0 °F 86% 30.19 in 3.0 mi WSW 6.9 mph - 0.00 in Snow Light Snow
12:14 AM 17.6 °F 7.3 °F 14.0 °F 86% 30.19 in 2.5 mi WSW 8.1 mph - 0.00 in Snow Light Snow
12:27 AM 17.6 °F 8.2 °F 14.0 °F 86% 30.19 in 3.0 mi WSW 6.9 mph - 0.00 in Snow Light Snow
12:38 AM 17.6 °F 7.3 °F 14.0 °F 86% 30.19 in 4.0 mi WSW 8.1 mph - 0.00 in Snow Light Snow
12:53 AM 17.1 °F 8.7 °F 14.0 °F 88% 30.31 in 3.0 mi WSW 5.8 mph - 0.00 in Snow Light Snow
1:40 AM 17.6 °F 9.3 °F 12.2 °F 79% 30.19 in 2.5 mi WSW 5.8 mph - 0.00 in Snow Light Snow
1:53 AM 17.1 °F 8.7 °F 12.9 °F 84% 30.30 in 3.0 mi WSW 5.8 mph - 0.00 in Snow Light Snow
2:51 AM 15.8 °F 7.2 °F 12.2 °F 86% 30.19 in 3.0 mi WSW 5.8 mph - 0.00 in Snow Light Snow
2:53 AM 15.1 °F 6.4 °F 12.0 °F 88% 30.31 in 3.0 mi WSW 5.8 mph - 0.00 in Snow Light Snow
3:35 AM 14.0 °F 3.9 °F 10.4 °F 86% 30.19 in 10.0 mi WSW 6.9 mph - 0.00 in   Overcast
3:53 AM 14.0 °F 5.1 °F 10.9 °F 88% 30.31 in 10.0 mi WSW 5.8 mph - 0.00 in   Overcast
4:53 AM 12.9 °F 5.2 °F 10.0 °F 88% 30.30 in 4.0 mi WSW 4.6 mph - N/A   Overcast
5:10 AM 12.2 °F 2.9 °F 10.4 °F 92% 30.18 in 7.0 mi West 5.8 mph - N/A   Overcast
5:53 AM 12.9 °F 2.6 °F 9.0 °F 84% 30.30 in 10.0 mi WSW 6.9 mph - N/A   Overcast
6:53 AM 12.0 °F 0.5 °F 8.1 °F 84% 30.30 in 10.0 mi West 8.1 mph - N/A   Overcast
7:35 AM 10.4 °F -0.4 °F 8.6 °F 92% 30.19 in 10.0 mi West 6.9 mph - N/A   Scattered Clouds
7:53 AM 12.0 °F 1.5 °F 8.1 °F 84% 30.31 in 10.0 mi West 6.9 mph - N/A   Scattered Clouds
8:53 AM 14.0 °F 2.9 °F 10.0 °F 84% 30.31 in 10.0 mi West 8.1 mph - N/A   Scattered Clouds
9:53 AM 16.0 °F 2.9 °F 10.0 °F 77% 30.31 in 10.0 mi West 11.5 mph - N/A   Scattered Clouds
10:53 AM 18.0 °F 7.7 °F 10.9 °F 74% 30.31 in 10.0 mi WNW 8.1 mph - N/A   Scattered Clouds
11:53 AM 19.9 °F 7.9 °F 10.0 °F 65% 30.31 in 10.0 mi WNW 11.5 mph - N/A   Scattered Clouds
12:53 PM 21.0 °F 9.9 °F 10.9 °F 65% 30.33 in 10.0 mi WNW 10.4 mph - N/A   Overcast
1:53 PM 21.9 °F 10.4 °F 10.9 °F 63% 30.34 in 10.0 mi West 11.5 mph - N/A   Overcast
2:53 PM 21.9 °F 11.0 °F 12.0 °F 66% 30.36 in 9.0 mi WNW 10.4 mph - N/A   Overcast
3:27 PM 21.2 °F 8.3 °F 12.2 °F 68% 30.25 in 5.0 mi WNW 13.8 mph - 0.00 in Snow Light Snow
3:36 PM 21.2 °F 9.5 °F 14.0 °F 74% 30.25 in 10.0 mi West 11.5 mph - 0.00 in   Overcast
3:53 PM 23.0 °F 11.7 °F 12.9 °F 65% 30.37 in 10.0 mi West 11.5 mph - 0.00 in   Overcast
4:53 PM 24.1 °F 12.5 °F 12.0 °F 60% 30.37 in 10.0 mi WNW 12.7 mph 21.9 mph N/A   Overcast
5:53 PM 24.1 °F 11.5 °F 12.0 °F 60% 30.38 in 10.0 mi West 15.0 mph - N/A   Overcast
6:53 PM 24.1 °F 13.1 °F 12.9 °F 62% 30.39 in 7.0 mi West 11.5 mph - 0.00 in Snow Light Snow
7:53 PM 23.0 °F 10.1 °F 12.0 °F 63% 30.40 in 10.0 mi WNW 15.0 mph - 0.00 in   Overcast
8:53 PM 21.9 °F 11.7 °F 10.0 °F 60% 30.41 in 10.0 mi West 9.2 mph - N/A   Overcast
9:53 PM 19.9 °F 8.6 °F 10.0 °F 65% 30.42 in 10.0 mi West 10.4 mph - N/A   Overcast
10:53 PM 19.0 °F 8.2 °F 9.0 °F 65% 30.41 in 10.0 mi West 9.2 mph - N/A   Overcast
11:53 PM 18.0 °F 6.9 °F 8.1 °F 65% 30.41 in 10.0 mi West 9.2 mph - N/A   Overcast